sat.trackr.live / text

‹ back to catalog

UNKNOWN

NORAD 84236

UNKNOWN UNKNOWN UNKNOWN

§ Identity

Operator
Country
Launch date
Launch site
Launch vehicle
Mass (kg)
RCS (m²)

External: N2YO · Heavens-Above

§ Orbital elements

Epoch: 2026-09-19T11:05:29.035104Z

Period
547.41 min
Inclination
9.0307°
Eccentricity
0.6903294
Mean motion
2.63056644 rev/d
Perigee alt
486.3 km
Apogee alt
31,091.0 km
Semi-major
22,166.8 km
B*
5.3842e-3
RAAN
206.1959°
Arg perigee
346.4903°
Mean anomaly
1.7183°
Rev number
12,136

§ Raw data

UNKNOWN1 84236U          26262.46214161  .00000916  00000+0  53842-2 0  99952 84236   9.0307 206.1959 6903294 346.4903   1.7183  2.63056644121367

JSON: /api/v1/satellites/84236 · /tle

For live sub-satellite position, see the globe view (requires WebGL).

§ Visibility from observer

Set your observer location to see the next 7 days of passes ≥ 10°. The values pass through the URL so the page stays shareable.

No JS? Fill the form by hand. The geolocation button needs JavaScript.